Weather History for Sedalia, MO

Change the Weather History Date:

Saturday, August 24, 2013

  Actual Average Record
Temperature  
Mean Temperature 81 °F 77 °F  
Max Temperature 92 °F 88 °F 100 °F (1938)
Min Temperature 70 °F 66 °F 51 °F (1945)
Degree Days  
Heating Degree Days 0 0  
Month to date heating degree days 0 0  
Since 1 June heating degree days 9 6  
Since 1 July heating degree days 0 0  
Cooling Degree Days 16 12  
Month to date cooling degree days 248 325  
Year to date cooling degree days 1080 1205  
Since 1 June cooling degree days 932 1066  
Growing Degree Days 30 (Base 50)    
Moisture  
Dew Point 69 °F    
Average Humidity 72    
Maximum Humidity 100    
Minimum Humidity 44    
Precipitation  
Precipitation 0.00 in 0.15 in 2.00 in (1989)
Month to date precipitation 2.90 2.50  
Year to date precipitation 29.91 26.95  
Sea Level Pressure  
Sea Level Pressure 30.13 in    
Wind  
Wind Speed 8 mph (SSE)    
Max Wind Speed 15 mph    
Max Gust Speed 18 mph    
Visibility 8 miles    
Events      
T = Trace of Precipitation, MM = Missing Value Source: NWS Daily Summary

Daily Weather History Graph

Daily Weather History Graph

Search for Another Location

Airport:

Trip Planner

Search our weather history database for the weather conditions in past years. The results will help you decide how hot, cold, wet, or windy it might be!

Date:

Astronomy

Aug. 24, 2013 Rise Set
Actual Time 6:34 AM CDT 7:54 PM CDT
Civil Twilight 6:07 AM CDT 8:21 PM CDT
Nautical Twilight 5:34 AM CDT 8:55 PM CDT
Astronomical Twilight 4:59 AM CDT 9:29 PM CDT
Moon 9:52 PM CDT (8/24) 10:32 AM CDT (8/24)
Length of Visible Light 14h 14m
Length of Day
13h 19m
Waning Gibbous, 84% of the Moon is Illuminated
Aug 24
Waning Gibbous
Aug 28
Last Quarter
Sep 5
New
Sep 12
First Quarter
Sep 19
Full

Hourly Weather History & Observations

Time (CDT) Temp. Heat Index Dew Point Humidity Pressure Visibility Wind Dir Wind Speed Gust Speed Precip Events Conditions
12:53 AM 73.9 °F - 69.1 °F 85% 30.07 in 10.0 mi ESE 4.6 mph - N/A   Clear
1:53 AM 72.0 °F - 69.1 °F 91% 30.08 in 8.0 mi ESE 3.5 mph - N/A   Clear
2:53 AM 73.0 °F - 70.0 °F 90% 30.08 in 7.0 mi SE 5.8 mph - N/A   Clear
3:53 AM 72.0 °F - 70.0 °F 93% 30.10 in 6.0 mi SE 5.8 mph - N/A   Clear
4:53 AM 72.0 °F - 69.1 °F 91% 30.11 in 6.0 mi SE 4.6 mph - N/A   Clear
5:53 AM 72.0 °F - 69.1 °F 91% 30.12 in 5.0 mi SSE 5.8 mph - N/A   Clear
6:53 AM 70.0 °F - 69.1 °F 97% 30.14 in 3.0 mi SSE 4.6 mph - N/A   Clear
7:53 AM 73.9 °F - 71.1 °F 91% 30.15 in 4.0 mi SSE 4.6 mph - N/A   Clear
8:53 AM 79.0 °F - 73.0 °F 82% 30.17 in 7.0 mi South 8.1 mph - N/A   Clear
9:53 AM 82.9 °F 88.8 °F 73.0 °F 72% 30.17 in 9.0 mi South 11.5 mph - N/A   Clear
10:53 AM 86.0 °F 93.8 °F 73.9 °F 67% 30.17 in 9.0 mi South 6.9 mph - N/A   Clear
11:53 AM 87.1 °F 94.5 °F 73.0 °F 63% 30.16 in 10.0 mi South 9.2 mph - N/A   Clear
12:53 PM 88.0 °F 94.7 °F 72.0 °F 59% 30.16 in 10.0 mi SSE 9.2 mph - N/A   Partly Cloudy
1:53 PM 90.0 °F 96.4 °F 71.1 °F 54% 30.15 in 10.0 mi SSE 9.2 mph - N/A   Partly Cloudy
2:53 PM 91.9 °F 95.4 °F 66.9 °F 44% 30.14 in 10.0 mi SSE 11.5 mph - N/A   Clear
3:53 PM 91.9 °F 94.5 °F 66.0 °F 42% 30.12 in 10.0 mi SE 10.4 mph - N/A   Clear
4:53 PM 91.0 °F 94.3 °F 66.9 °F 45% 30.12 in 10.0 mi SSE 10.4 mph - N/A   Clear
5:53 PM 89.1 °F 92.9 °F 68.0 °F 50% 30.11 in 10.0 mi SSE 9.2 mph - N/A   Clear
6:53 PM 86.0 °F 88.8 °F 66.9 °F 53% 30.11 in 10.0 mi SE 6.9 mph - N/A   Clear
7:53 PM 80.1 °F 82.3 °F 66.9 °F 64% 30.12 in 10.0 mi SE 4.6 mph - N/A   Clear
8:53 PM 75.9 °F - 66.0 °F 71% 30.13 in 10.0 mi SE 6.9 mph - N/A   Clear
9:53 PM 77.0 °F - 66.0 °F 69% 30.14 in 10.0 mi SE 9.2 mph - N/A   Clear
10:53 PM 77.0 °F - 66.0 °F 69% 30.14 in 10.0 mi SSE 10.4 mph - N/A   Clear
11:53 PM 73.0 °F - 64.9 °F 76% 30.15 in 10.0 mi South 8.1 mph - N/A   Clear